www.pogodaiklimat.ru

Погода и климат >> Архив погоды >> Россия >> Камчатский край >> Усть-Камчатск


ПОГОДА в Усть-Камчатске

  • Прогноз погоды в Усть-Камчатске
  • Монитор погоды в Усть-Камчатске

АРХИВ ПОГОДЫ в Усть-Камчатске

Время (UTC), дата Ветер
(напр.,м/с)
 
Видим.   Явления Облачность Т
(С)
Тd
(С)
f
(%)
Тe
(С)
Тes
(С)
Комфортность P
(гПа)
Po
(гПа)
Тmin
(С)
Tmax
(С)
R
(мм)
R24
(мм)
S
(см)
21 19.03 С 8-10
{11}
2000 м ливневой снег {метель} 10/10 200 м
[Cb cap]
-13.7 -15.8 84 -24 -24 1006.5 1003.5 -14.0 0.0
00 20.03 С 9-13
{13}
2000 м ливневой снег {метель} 10/10 100 м
[Cb cap]
-11.5 -13.4 86 -22 -22 1004.4 1001.4
03 20.03 С 10-13
{15}
1000 м ливневой снег {метель} 10/10 100 м
[Cb cap]
-11.3 -12.9 88 -22 -22 1002.1 999.1
06 20.03 С 9-13
{16}
1000 м ливневой снег {метель} 10/10 100 м
[Cb cap]
-10.9 -12.3 89 -21 -21 1000.7 997.7
09 20.03 СВ 10-14
{17}
1000 м ливневой снег {метель} 10/10 100 м
[Cb cap]
-9.8 -11.3 89 -20 -20 998.2 995.2 -9.8 8
12 20.03 С 6
{15}
1000 м ливневой снег {метель} 10/10 100 м
[Cb cap]
-6.8 -7.8 93 -15 -15 996.2 993.3
15 20.03 З 6
{13}
1000 м ливневой снег {метель} 10/10 100 м
[Cb cap]
-10.7 -11.9 91 -19 -19 996.0 993.0
18 20.03 З 6
{10}
1000 м ливневой снег {метель} 10/10 100 м
[Cb cap]
-11.6 -13.0 89 -20 -20 995.7 992.7
21 20.03 С 2 2000 м ливневой снег 10/10 200 м
[Cb cap]
-11.8 -13.4 88 -16 -16 995.4 992.4 -12.8 10 188
00 21.03 СЗ 4 1000 м ливневой снег 10/10 100 м
[Cb cap]
-10.1 -11.4 90 -17 -17 995.3 992.3
03 21.03 З 3 10 км в посл. час ливневой снег 10/10 300 м
[St]
-6.8 -7.9 92 -13 -13 996.1 993.1
06 21.03 З 3 10 км {ливн. осадки} 10/10 300 м
[St]
-8.0 -9.2 91 -14 -14 998.5 995.5
09 21.03 С 1 20 км 8/8 600 м
[Sc]
-10.0 -11.2 91 -12 -12 1001.0 998.0 -6.4 5
12 21.03 С 2 2000 м ливневой снег 10/10 200 м
[Cb cap]
-7.9 -8.9 93 -12 -12 1002.2 999.2
15 21.03 штиль 0 2000 м ливневой снег 10/10 200 м
[Cb cap]
-8.8 -9.9 92 -9 -9 1005.0 1002.0
18 21.03 В 1 2000 м ливневой снег 10/10 200 м
[Cb cap]
-7.9 -8.9 93 -10 -10 1007.6 1004.6
21 21.03 З 1 2000 м ливневой снег 10/10 200 м
[Cb cap]
-7.5 -8.6 92 -10 -10 1009.4 1006.4 -10.3 3 189
00 22.03 С 3 2000 м ливневой снег 10/10 200 м
[Cb cap]
-4.0 -5.0 93 -9 -9 1009.8 1006.8
03 22.03 ЮВ 2 10 км {ливн. осадки} 9/6 600 м
[Sc Ac trans]
+1.2 -1.8 80 -2 -1 1009.3 1006.4
06 22.03 ЮВ 2
{10}
2000 м ливневой снег 10/10 200 м
[Cb cap]
+0.2 -1.1 91 -4 -4 1009.4 1006.5
09 22.03 З 2 10 км слаб. ливневой снег 10/8 300 м
[Cb cap Ac und]
-1.9 -3.3 90 -6 -6 1010.1 1007.2 +1.3 1
12 22.03 СЗ 3 10 км слаб. ливневой снег 10/8 300 м
[Cb cap Ac und]
-2.6 -3.0 97 -8 -8 1009.3 1006.4
15 22.03 СЗ 1 10 км слаб. ливневой снег 10/8 300 м
[Cb cap Ac und]
-3.0 -3.5 96 -5 -5 1007.8 1004.9
18 22.03 В 9-13
{14}
1000 м ливневой снег {метель} 10/10 100 м
[Cb cap]
-1.0 -1.8 94 -9 -9 1005.6 1002.7
21 22.03 В 8-13
{17}
1000 м ливневой снег {метель} 10/10 100 м
[Cb cap]
-1.5 -3.1 89 -10 -10 1004.6 1001.7 -3.8 0.4 193
00 23.03 В 8-12
{13}
1000 м ливневой снег {метель} 10/10 100 м
[Cb cap]
-1.4 -2.3 94 -9 -9 1002.6 999.7
03 23.03 В 12-18
{18}
1000 м ливневой снег {метель} 10/10 100 м
[Cb cap]
-1.8 -2.8 93 -11 -11 998.7 995.9
06 23.03 СВ 8-12
{18}
1000 м ливневой снег {метель} 10/10 100 м
[Cb cap]
-2.1 -4.4 84 -10 -10 997.1 994.2
09 23.03 СВ 8-13
{16}
10 км слаб. ливневой снег {метель} 10/10 100 м
[Cb cap]
-2.3 -4.6 84 -10 -10 994.4 991.5 -1.2 7
12 23.03 СВ 11-15
{16}
1000 м ливневой снег {метель} 10/10 100 м
[Cb cap]
-2.7 -4.0 91 -12 -12 991.8 988.9
15 23.03 С 8-11
{16}
1000 м ливневой снег {метель} 10/10 100 м
[Cb cap]
-2.8 -4.5 88 -11 -11 990.1 987.2
18 23.03 С 8-12
{13}
1000 м ливневой снег {метель} 10/10 100 м
[Cb cap]
-3.3 -4.7 90 -12 -12 988.8 986.0
21 23.03 С 11-14
{17}
1000 м ливневой снег {метель} 10/10 100 м
[Cb cap]
-3.9 -4.8 93 -14 -14 987.7 984.8 -3.9 5 193
00 24.03 С 13-17
{18}
1000 м ливневой снег {метель} 10/10 100 м
[Cb cap]
-4.5 -5.7 91 -15 -15 987.4 984.5 -4.6
03 24.03 С 10-14
{18}
10 км позёмок {ливн. осадки} 10/10 300 м
[St]
-4.7 -6.2 89 -14 -14 987.6 984.8
06 24.03 С 8-11
{14}
20 км позёмок {ливн. осадки} 10/8 600 м
[Sc Ac und]
-5.2 -7.3 85 -14 -14 988.1 985.2
09 24.03 СВ 5
{11}
20 км {метель} 8/4 1000 м
[Sc Ac trans]
-8.4 -11.3 80 -16 -16 989.2 986.2 -3.8 0.2
12 24.03 В 4 20 км {метель} 8/5 1000 м
[Sc Ac trans]
-10.2 -13.0 80 -17 -17 989.8 986.8
15 24.03 СВ 5 20 км 6/5 1000 м
[Sc Ac trans]
-11.7 -16.6 67 -20 -20 989.0 986.0
18 24.03 СВ 5 20 км 5/3 1000 м
[Sc Ac trans]
-13.6 -18.1 69 -22 -22 988.1 985.1
21 24.03 СВ 6
{10}
20 км 5/3 1000 м
[Sc Ac trans]
-12.5 -17.4 67 -21 -21 988.2 985.3 -14.7 188
00 25.03 СВ 6 50 км 3/1 1000 м
[Sc Ac trans Ci fib]
-10.0 -14.5 70 -18 -16 987.9 984.9
03 25.03 СВ 6 50 км 3/0
[Ac trans Ci fib]
-8.4 -13.9 64 -17 -14 987.4 984.5
06 25.03 СВ 6 50 км позёмок 3/0
[Ac trans Ci fib]
-9.0 -15.5 59 -17 -17 987.1 984.1
09 25.03 В 4 50 км {метель} 4/1 1000 м
[Sc Ac trans Ci fib]
-11.1 -17.1 61 -18 -18 987.2 984.3 -8.3
12 25.03 С 3 50 км {метель} 4/0
[Ac trans Ci fib]
-19.0 -22.2 76 -26 -26 986.2 983.1
15 25.03 ЮВ 1 50 км 3/0
[Ac trans Ci fib]
-23.0 -25.4 81 -26 -26 984.2 981.1
18 25.03 ЮВ 1 50 км 5/0
[Ac trans Ci fib]
-12.4 -17.1 68 -15 -15 982.8 979.8
21 25.03 ЮВ 2 20 км 8/5 1000 м
[Sc Ac trans]
-10.0 -16.1 61 -14 -14 981.3 978.4 -23.3 188
00 26.03 З 5
{10}
20 км позёмок 6/0
[Ac trans Ci fib]
-6.6 -12.1 65 -14 -11 980.7 977.8
03 26.03 З 5
{10}
20 км позёмок 8/0
[Ac trans Ci fib]
-3.7 -9.7 63 -10 -8 979.9 977.0
06 26.03 З 4
{10}
20 км {метель} 8/4 1000 м
[Sc Ci fib]
-4.2 -10.5 61 -10 -10 980.4 977.5
09 26.03 З 4 20 км 8/6 1000 м
[Sc Ci fib]
-6.4 -12.7 61 -13 -13 982.3 979.4 -3.5
12 26.03 З 5 10 км 8/8 1000 м
[Sc]
-7.3 -13.4 62 -15 -15 984.1 981.2
15 26.03 ЮЗ 4
{11}
20 км {метель} 6/0
[Ac trans]
-7.3 -13.4 62 -14 -14 986.3 983.4
18 26.03 ЮЗ 3 20 км 8/0
[Ac trans Ci fib]
-8.7 -14.2 64 -14 -14 988.4 985.5

 

Местоположение метеостанции Усть-Камчатск (Камчатский край, Россия): широта 56.22 долгота 162.70 высота над уровнем моря 30 м.

В архиве по умолчанию представлена погода в Усть-Камчатске за последнюю неделю. Архивные данные за месяц целиком и за предыдущие месяцы, начиная с января 2011 года, Вы можете получить, выбрав интересующий диапазон дат из раскрывающегося списка и нажав кнопку "Ввод!".


*Определитесь, кто Вы:
робот инопланетянин человек

Внимание! Время в таблицах - всемирное. Для получения местного времени необходимо прибавить поправку, которая равна 12 ч.

Смотрите также архив погоды в соседних городах и на ближайших метеорологических станциях:

Погода на Мысе Африка (Камчатский край, Россия) (37 км)
Погода в Ключах (Камчатский край, Россия) (118 км)
Погода на Мысе Озерном (Камчатский край, Россия) (162 км)
Погода в Козыревске (Камчатский край, Россия) (181 км)
Погода на Острове Беринга (Камчатский край, Россия) (230 км)
Погода в Эссо (Камчатский край, Россия) (250 км)
Погода в Долиновке (Камчатский край, Россия) (262 км)
Погода в Семячике (Камчатский край, Россия) (294 км)
Погода в Тигиле (Камчатский край, Россия) (301 км)
Погода в Мильково (Камчатский край, Россия) (315 км)

Пояснения к столбцам:

Ветер - указаны скорость ветра в м/с - средняя за 10 мин, порывы в срок и между сроками (в фигурных скобках) и направление, откуда дует ветер: С - северный, СВ - северо-восточный, В - восточный, ЮВ - юго-восточный, Ю - южный, ЮЗ - юго-западный, З - западный, СЗ - северо-западный.
Видимость - горизонтальная дальность видимости в метрах или километрах. При видимости от 1 до 10 км при отсутствии осадков обычно наблюдается дымка, при ухудшении видимости до 1 км и менее - туман. В сухую погоду видимость может ухудшаться дымом, пылью или мглою.
Явления - указаны атмосферные явления, наблюдавшиеся в срок или в последний час перед сроком; фигурными скобками обозначены явления, наблюдавшиеся между сроками (за 1-3 часа до срока); квадратными скобками обозначены град или гололедные отложения с указанием их диаметра в мм.
Облачность - указаны через наклонную черту общая и нижняя облачность в баллах и высота нижней границы облаков в метрах; квадратными скобками обозначены формы облаков: Ci - перистые, Cs - перисто-слоистые, Cc - перисто-кучевые, Ac - высококучевые, As - высокослоистые, Sc - слоисто-кучевые, Ns - слоисто-дождевые, Cu - кучевые, Cb - кучево-дождевые. Подробнее классификацию облаков см. в Атласе облаков (PDF).
T - Температура воздуха - температура, измеренная на высоте 2 м над землей.
Td - Температура точки росы - температура, при понижении до которой содержащийся в воздухе водяной пар достигнет насыщения.
f - Относительная влажность воздуха - влажноcть воздуха, измеренная на высоте 2 м над землей.
Te - Эффективная температура - температура, которую ощущает одетый по сезону человек в тени. Характеристика душности погоды. При расчете учитывается влияние влажности воздуха и скорости ветра на теплоощущения человека.
Tes - Эффективная температура на солнце - температура, которую ощущает человек, с поправкой на солнечный нагрев. Характеристика знойности погоды. Зависит от высоты солнца над горизонтом, облачности и скорости ветра. Ночью, в пасмурную погоду, а также при ветре 12 м/с и более поправка равна нулю.
P - Атмосферное давление - приведенное к уровню моря атмосферное давление.
Po - Атмосферное давление - измеренное на уровне метеостанции атмосферное давление.
Tmin - Минимальная температура - минимум температуры воздуха на высоте 2 м над землей.
Tmax - Максимальная температура - максимум температуры воздуха на высоте 2 м над землей.
R - Количество осадков - Количество выпавших осадков за период времени, мм. При наведении курсора мыши на число - период времени, за который выпало указанное количество осадков.
R24 - Количество осадков - Количество выпавших осадков за 24 часа, мм.
S - Снежный покров - Высота снежного покрова, см. При наведении курсора мыши на число - состояние снежного покрова и степень покрытия местности в баллах.